Regional Weather Roundup
Issued by NWS

Home | Current Version | Previous Version | Graphics & Text | Print | Product List | Glossary On
Versions: 1 2 3 4 5 6 7 8 9 10 11 12 13 14 15 16 17 18 19 20 21 22 23 24 25 26 27 28 29 30 31 32 33 34 35 36 37 38 39 40 41 42 43 44 45 46 47 48 49 50
000
ASUS45 KBOI 171410
RWRID
WEATHER ROUNDUP FOR IDAHO
NATIONAL WEATHER SERVICE BOISE ID
700 AM MST WED DEC 17 2014

NOTE: "FAIR" INDICATES FEW OR NO CLOUDS BELOW 12000 FEET
WITH NO SIGNIFICANT WEATHER AND/OR OBSTRUCTIONS TO VISIBILITY

IDZ012-014-171500-
SOUTHWEST IDAHO


CITY           SKY/WX    TMP DP  RH WIND       PRES   REMARKS
BOISE          CLEAR     29  26  89 CALM      29.97R
CALDWELL       MOCLDY    28  21  74 NE7       29.99S WCI  21
MOUNTAIN HOME  CLEAR     31  28  89 E15       29.97R WCI  21
$$

IDZ016-017-171500-
SOUTHCENTRAL IDAHO


CITY           SKY/WX    TMP DP  RH WIND       PRES   REMARKS
BURLEY         CLEAR     22  19  89 CALM      29.97S FOG
JEROME         CLEAR     27  23  85 E15       29.97S WCI  15
TWIN FALLS     CLEAR     28  21  75 SE10      29.97R WCI  19
$$

IDZ019>023-171500-
SOUTHEAST IDAHO


CITY           SKY/WX    TMP DP  RH WIND       PRES   REMARKS
IDAHO FALLS    FOG       27  26  96 CALM      30.00S VSB 1/8
POCATELLO      CLEAR     23  22  96 CALM      30.00S
REXBURG        CLOUDY    30  30 100 NE3       30.00S FOG
$$

IDZ006-010-011-018-031-032-171500-
CENTRAL IDAHO MOUNTAINS


CITY           SKY/WX    TMP DP  RH WIND       PRES   REMARKS
MCCALL         CLOUDY    25  23  92 NE3       29.92R
HAILEY         PTCLDY    25  21  86 NW7       29.99R WCI  17
STANLEY          N/A     23  18  81 CALM      29.95S
SALMON         CLOUDY    25  23  93 CALM      29.99S
CHALLIS        CLOUDY    20  19  96 CALM      29.98S
$$

IDZ002-004-006-007-026-171500-
NORTHERN IDAHO


CITY           SKY/WX    TMP DP  RH WIND       PRES   REMARKS
LEWISTON       CLEAR     36  31  82 E6        29.93F WCI  31
LOWELL           N/A     32  30  92 CALM      30.03S
COEUR D`ALENE  CLOUDY    34  28  80 NE8       29.93F WCI  27
MULLAN PASS    CLOUDY    26  23  88 VRB5      29.86R FOG     WCI  20
$$



USA.gov is the U.S. government's official web portal to all federal, state and local government web resources and services.